This is the latest recevied weather packets stored in our database for station/object N8AMF. If no packets are shown the sender has not sent any weather packets the latest 10 day(s).
| Time | Temp. | Humidity | Pressure | Rain* | Wind** | Luminosity | Snow |
|---|---|---|---|---|---|---|---|
| 1778054234 | 7.78° C | 99% | 1007.6 hPa | 3.05 mm | - | 0 W/m² | - |
| 1778053929 | 7.78° C | 99% | 1007.8 hPa | 1.78 mm | - | 0 W/m² | - |
| 1778053623 | 7.78° C | 99% | 1007.8 hPa | 0.51 mm | - | 0 W/m² | - |
| 1778053319 | 7.78° C | 99% | 1007.7 hPa | 1.27 mm | - | 0 W/m² | - |
| 1778053016 | 7.78° C | 99% | 1007.6 hPa | 1.78 mm | - | 0 W/m² | - |
| 1778052714 | 7.78° C | 99% | 1007.6 hPa | 1.27 mm | - | 0 W/m² | - |
| 1778052410 | 7.78° C | 99% | 1007.6 hPa | 1.27 mm | - | 0 W/m² | - |
| 1778052108 | 7.78° C | 99% | 1007.5 hPa | 1.27 mm | - | 0 W/m² | - |
| 1778051805 | 7.78° C | 99% | 1007.4 hPa | 1.78 mm | - | 0 W/m² | - |
| 1778051503 | 7.78° C | 99% | 1007.5 hPa | 1.78 mm | - | 0 W/m² | - |
| 1778051200 | 7.78° C | 99% | 1007.5 hPa | 1.27 mm | - | 0 W/m² | - |
| 1778050897 | 7.78° C | 99% | 1007.6 hPa | 1.27 mm | - | 0 W/m² | - |
| 1778050595 | 7.78° C | 99% | 1007.6 hPa | 1.27 mm | - | 0 W/m² | - |
| 1778050291 | 7.78° C | 99% | 1007.6 hPa | 0.51 mm | - | 0 W/m² | - |
| 1778049988 | 7.78° C | 99% | 1007.5 hPa | 0 mm | - | 0 W/m² | - |
| 1778049683 | 7.78° C | 99% | 1007.3 hPa | 0.51 mm | - | 0 W/m² | - |
| 1778049382 | 7.78° C | 99% | 1007.6 hPa | 0.51 mm | - | 0 W/m² | - |
| 1778049079 | 7.78° C | 99% | 1007.4 hPa | 1.27 mm | - | 0 W/m² | - |
| 1778048777 | 7.78° C | 99% | 1007.1 hPa | 1.27 mm | - | 0 W/m² | - |
| 1778048474 | 7.78° C | 99% | 1007 hPa | 0.51 mm | - | 0 W/m² | - |
| 1778048170 | 7.78° C | 99% | 1007.5 hPa | 1.27 mm | - | 0 W/m² | - |
| 1778047868 | 7.78° C | 99% | 1007.7 hPa | 0.51 mm | - | 0 W/m² | - |
| 1778047566 | 7.78° C | 99% | 1007.8 hPa | 0 mm | - | 0 W/m² | - |
| 1778047262 | 7.78° C | 99% | 1007.6 hPa | 0.51 mm | - | 0 W/m² | - |
| 1778046960 | 7.78° C | 99% | 1007.7 hPa | 0.51 mm | - | 0 W/m² | - |
* Rain latest hour (hover to see other rain measurements)
** Current wind speed in m/s (hover to see current wind gust speed)